SDR47 EDDK-DTTJ

Flight info

Callsign SDR47
Flight time 2h 31m
Altitude 34000
Route COL4B COL DCT EDISA Y173 PABLA Y163 NATOR N850 ODINA DCT EVANO DCT DORAV DCT UNITA DCT BAKRO DCT IBROS DCT NOLSI UA868 TUC UM731 JBA
Aircraft A320/M-SDE3FGHIRWY/LB1

Departure

Time 2026-04-26 13:42
Airport Cologne Bonn Airport (EDDK)

Arrival

Time 2026-04-26 16:13
Airport Djerba Zarzis International Airport (DTTJ)
Time Latitude Longitude Altitude Speed Heading
2026-04-26 13:04 50.88150 7.11997 233 ft 0 kts 216°
2026-04-26 13:27 50.88154 7.12001 232 ft 3 kts 216°
2026-04-26 13:27 50.88175 7.12027 232 ft 4 kts 217°
2026-04-26 13:27 50.88193 7.12045 236 ft 4 kts 178°
2026-04-26 13:27 50.88211 7.12028 234 ft 4 kts 126°
2026-04-26 13:28 50.88221 7.12005 233 ft 0 kts 126°
2026-04-26 13:30 50.88220 7.12007 234 ft 2 kts 126°
2026-04-26 13:30 50.88188 7.12078 233 ft 9 kts 125°
2026-04-26 13:31 50.88145 7.12173 232 ft 14 kts 126°
2026-04-26 13:31 50.88100 7.12309 233 ft 13 kts 108°
2026-04-26 13:31 50.88054 7.12416 232 ft 11 kts 131°
2026-04-26 13:31 50.88003 7.12493 232 ft 9 kts 137°
2026-04-26 13:32 50.87947 7.12574 232 ft 11 kts 137°
2026-04-26 13:32 50.87883 7.12612 232 ft 9 kts 184°
2026-04-26 13:32 50.87801 7.12653 233 ft 15 kts 139°
2026-04-26 13:32 50.87732 7.12754 232 ft 13 kts 137°
2026-04-26 13:33 50.87664 7.12852 232 ft 15 kts 138°
2026-04-26 13:33 50.87591 7.12957 232 ft 13 kts 136°
2026-04-26 13:33 50.87529 7.13049 232 ft 11 kts 137°
2026-04-26 13:33 50.87457 7.13152 232 ft 18 kts 137°
2026-04-26 13:34 50.87362 7.13290 232 ft 19 kts 137°
2026-04-26 13:34 50.87265 7.13430 233 ft 18 kts 137°
2026-04-26 13:34 50.87165 7.13574 237 ft 19 kts 137°
2026-04-26 13:34 50.87104 7.13664 240 ft 17 kts 137°
2026-04-26 13:35 50.87000 7.13813 243 ft 16 kts 137°
2026-04-26 13:35 50.86918 7.13934 250 ft 17 kts 137°
2026-04-26 13:35 50.86828 7.14067 255 ft 18 kts 136°
2026-04-26 13:35 50.86748 7.14134 255 ft 12 kts 163°
2026-04-26 13:36 50.86664 7.14237 260 ft 16 kts 136°
2026-04-26 13:36 50.86554 7.14400 262 ft 26 kts 138°
2026-04-26 13:36 50.86424 7.14587 271 ft 24 kts 137°
2026-04-26 13:36 50.86308 7.14758 277 ft 22 kts 138°
2026-04-26 13:37 50.86195 7.14919 284 ft 21 kts 137°
2026-04-26 13:37 50.86087 7.15076 288 ft 22 kts 138°
2026-04-26 13:37 50.85974 7.15239 295 ft 23 kts 137°
2026-04-26 13:37 50.85851 7.15417 298 ft 25 kts 138°
2026-04-26 13:38 50.85722 7.15601 300 ft 25 kts 137°
2026-04-26 13:38 50.85599 7.15782 304 ft 24 kts 137°
2026-04-26 13:38 50.85472 7.15965 307 ft 25 kts 137°
2026-04-26 13:38 50.85351 7.16165 309 ft 25 kts 117°
2026-04-26 13:39 50.85349 7.16379 308 ft 14 kts 65°
2026-04-26 13:39 50.85376 7.16438 307 ft 3 kts 47°
2026-04-26 13:40 50.85389 7.16457 308 ft 8 kts 41°
2026-04-26 13:40 50.85470 7.16516 308 ft 16 kts 10°
2026-04-26 13:40 50.85560 7.16508 308 ft 11 kts 324°
2026-04-26 13:41 50.85583 7.16478 307 ft 0 kts 317°
2026-04-26 13:41 50.85608 7.16440 307 ft 26 kts 317°
2026-04-26 13:41 50.85926 7.15981 301 ft 95 kts 318°
2026-04-26 13:42 50.86562 7.15061 277 ft 150 kts 317°
2026-04-26 13:42 50.87438 7.13810 429 ft 179 kts 318°
2026-04-26 13:42 50.88353 7.12443 1089 ft 183 kts 317°
2026-04-26 13:42 50.89379 7.11215 1730 ft 191 kts 338°
2026-04-26 13:43 50.90703 7.11108 2289 ft 198 kts 15°
2026-04-26 13:43 50.92035 7.12002 2605 ft 218 kts 27°
2026-04-26 13:43 50.93328 7.13328 3275 ft 222 kts 44°
2026-04-26 13:43 50.94166 7.15425 3855 ft 237 kts 66°
2026-04-26 13:44 50.94864 7.17935 4244 ft 258 kts 65°
2026-04-26 13:44 50.95637 7.20548 4961 ft 265 kts 63°
2026-04-26 13:44 50.96448 7.23202 5718 ft 269 kts 63°
2026-04-26 13:44 50.97283 7.25885 6510 ft 273 kts 62°
2026-04-26 13:45 50.98139 7.28606 7253 ft 277 kts 62°
2026-04-26 13:45 50.98997 7.31320 8019 ft 281 kts 61°
2026-04-26 13:45 50.99879 7.34103 8760 ft 284 kts 60°
2026-04-26 13:45 51.00772 7.36921 9512 ft 287 kts 60°
2026-04-26 13:46 51.01485 7.39916 10280 ft 295 kts 75°
2026-04-26 13:46 51.01687 7.43243 10650 ft 315 kts 90°
2026-04-26 13:46 51.01249 7.46786 10801 ft 341 kts 106°
2026-04-26 13:46 51.00498 7.50489 10933 ft 363 kts 106°
2026-04-26 13:47 50.99716 7.54401 11210 ft 378 kts 106°
2026-04-26 13:47 50.98923 7.58415 11757 ft 384 kts 106°
2026-04-26 13:47 50.98124 7.62478 12370 ft 387 kts 106°
2026-04-26 13:47 50.97315 7.66578 12996 ft 391 kts 107°
2026-04-26 13:48 50.96494 7.70713 13616 ft 395 kts 107°
2026-04-26 13:48 50.95666 7.74874 14207 ft 398 kts 107°
2026-04-26 13:48 50.94826 7.79085 14752 ft 402 kts 108°
2026-04-26 13:48 50.93710 7.83159 15277 ft 405 kts 118°
2026-04-26 13:49 50.92002 7.86712 15814 ft 408 kts 139°
2026-04-26 13:49 50.89611 7.89090 16346 ft 408 kts 160°
2026-04-26 13:49 50.86843 7.89933 16882 ft 406 kts 182°
2026-04-26 13:49 50.84073 7.89214 17433 ft 405 kts 197°
2026-04-26 13:50 50.81292 7.88335 17976 ft 410 kts 188°
2026-04-26 13:50 50.78426 7.88215 18511 ft 415 kts 179°
2026-04-26 13:50 50.75546 7.88671 18985 ft 418 kts 173°
2026-04-26 13:50 50.72665 7.89432 19438 ft 421 kts 171°
2026-04-26 13:51 50.69777 7.90275 19875 ft 424 kts 171°
2026-04-26 13:51 50.66862 7.91065 20308 ft 426 kts 173°
2026-04-26 13:51 50.63926 7.91744 20734 ft 428 kts 174°
2026-04-26 13:51 50.60959 7.92320 21154 ft 430 kts 175°
2026-04-26 13:52 50.57978 7.92821 21550 ft 432 kts 176°
2026-04-26 13:52 50.54981 7.93293 21962 ft 434 kts 176°
2026-04-26 13:52 50.51972 7.93769 22359 ft 436 kts 175°
2026-04-26 13:52 50.48947 7.94261 22735 ft 438 kts 175°
2026-04-26 13:53 50.45906 7.94771 23100 ft 440 kts 175°
2026-04-26 13:53 50.42854 7.95301 23453 ft 442 kts 175°
2026-04-26 13:53 50.39791 7.95840 23800 ft 444 kts 175°
2026-04-26 13:53 50.36708 7.96384 24090 ft 446 kts 175°
2026-04-26 13:54 50.33620 7.96925 24387 ft 448 kts 175°
2026-04-26 13:54 50.30514 7.97464 24674 ft 450 kts 175°
2026-04-26 13:54 50.27439 7.97998 24947 ft 451 kts 175°
2026-04-26 13:55 50.21171 7.99090 25467 ft 455 kts 175°
2026-04-26 13:55 50.19037 7.99458 25641 ft 456 kts 175°
2026-04-26 13:55 50.11666 8.00715 26194 ft 461 kts 175°
2026-04-26 13:56 50.08471 8.01259 26430 ft 463 kts 175°
2026-04-26 13:56 50.05267 8.01806 26656 ft 464 kts 175°
2026-04-26 13:56 50.02046 8.02361 26872 ft 466 kts 175°
2026-04-26 13:56 49.98820 8.02923 27094 ft 467 kts 175°
2026-04-26 13:57 49.95585 8.03487 27293 ft 469 kts 175°
2026-04-26 13:57 49.92336 8.04050 27496 ft 470 kts 175°
2026-04-26 13:57 49.89080 8.04608 27687 ft 471 kts 175°
2026-04-26 13:57 49.85817 8.05162 27966 ft 470 kts 175°
2026-04-26 13:58 49.82609 8.05707 28248 ft 470 kts 175°
2026-04-26 13:58 49.79359 8.06257 28528 ft 469 kts 175°
2026-04-26 13:58 49.76119 8.06803 28786 ft 469 kts 176°
2026-04-26 13:58 49.72875 8.07349 29081 ft 468 kts 176°
2026-04-26 13:59 49.69639 8.07891 29361 ft 468 kts 176°
2026-04-26 13:59 49.66397 8.08436 29607 ft 468 kts 175°
2026-04-26 13:59 49.63156 8.08987 29859 ft 469 kts 175°
2026-04-26 14:00 49.53455 8.10643 30750 ft 464 kts 176°
2026-04-26 14:00 49.50250 8.11181 31031 ft 462 kts 176°
2026-04-26 14:00 49.48133 8.11533 31210 ft 461 kts 176°
2026-04-26 14:01 49.43866 8.12241 31529 ft 461 kts 176°
2026-04-26 14:01 49.40684 8.12768 31768 ft 460 kts 176°
2026-04-26 14:01 49.37503 8.13293 32016 ft 459 kts 176°
2026-04-26 14:01 49.34365 8.13812 32255 ft 459 kts 176°
2026-04-26 14:02 49.31151 8.14347 32485 ft 458 kts 176°
2026-04-26 14:02 49.27983 8.14876 32716 ft 458 kts 176°
2026-04-26 14:02 49.24857 8.15395 32953 ft 458 kts 176°
2026-04-26 14:02 49.21651 8.15923 33165 ft 457 kts 176°
2026-04-26 14:03 49.18536 8.16434 33411 ft 456 kts 176°
2026-04-26 14:03 49.15381 8.16955 33647 ft 456 kts 176°
2026-04-26 14:03 49.12228 8.17479 33875 ft 455 kts 176°
2026-04-26 14:03 49.09080 8.18004 34102 ft 455 kts 176°
2026-04-26 14:04 49.05930 8.18527 34217 ft 456 kts 176°
2026-04-26 14:04 48.99599 8.19568 34217 ft 458 kts 176°
2026-04-26 14:05 48.94333 8.20431 34221 ft 458 kts 176°
2026-04-26 14:05 48.86924 8.21642 34220 ft 458 kts 176°
2026-04-26 14:06 48.80578 8.22682 34222 ft 458 kts 176°
2026-04-26 14:06 48.74239 8.23722 34211 ft 458 kts 176°
2026-04-26 14:07 48.67903 8.24748 34214 ft 458 kts 177°
2026-04-26 14:07 48.61606 8.25765 34214 ft 458 kts 176°
2026-04-26 14:08 48.55269 8.26792 34210 ft 458 kts 176°
2026-04-26 14:08 48.48928 8.27804 34207 ft 458 kts 177°
2026-04-26 14:09 48.42578 8.28736 34206 ft 458 kts 178°
2026-04-26 14:09 48.36229 8.29551 34205 ft 458 kts 178°
2026-04-26 14:10 48.29884 8.30369 34204 ft 458 kts 178°
2026-04-26 14:10 48.23543 8.31220 34207 ft 458 kts 178°
2026-04-26 14:11 48.14035 8.32647 34201 ft 458 kts 175°
2026-04-26 14:11 48.07736 8.34169 34191 ft 459 kts 172°
2026-04-26 14:12 48.01491 8.35866 34192 ft 459 kts 173°
2026-04-26 14:12 47.95195 8.37461 34190 ft 459 kts 174°
2026-04-26 14:13 47.85733 8.39692 34184 ft 459 kts 174°
2026-04-26 14:14 47.79422 8.41190 34193 ft 459 kts 174°
2026-04-26 14:14 47.73117 8.42698 34198 ft 459 kts 173°
2026-04-26 14:15 47.66811 8.44151 34200 ft 457 kts 175°
2026-04-26 14:15 47.60501 8.45148 34202 ft 455 kts 178°
2026-04-26 14:16 47.54188 8.45915 34205 ft 454 kts 178°
2026-04-26 14:16 47.47937 8.46737 34184 ft 454 kts 177°
2026-04-26 14:17 47.41649 8.47677 34191 ft 454 kts 177°
2026-04-26 14:17 47.35370 8.48634 34209 ft 453 kts 177°
2026-04-26 14:18 47.29092 8.49560 34208 ft 453 kts 177°
2026-04-26 14:18 47.22825 8.50453 34203 ft 452 kts 177°
2026-04-26 14:19 47.16566 8.51371 34204 ft 452 kts 177°
2026-04-26 14:19 47.11366 8.52146 34201 ft 452 kts 177°
2026-04-26 14:20 47.05101 8.53055 34183 ft 452 kts 178°
2026-04-26 14:20 46.98849 8.53949 34191 ft 451 kts 178°
2026-04-26 14:21 46.92596 8.54846 34184 ft 451 kts 178°
2026-04-26 14:21 46.86347 8.55740 34180 ft 451 kts 178°
2026-04-26 14:22 46.80096 8.56631 34163 ft 451 kts 178°
2026-04-26 14:22 46.73884 8.57523 34169 ft 451 kts 178°
2026-04-26 14:23 46.67628 8.58422 34162 ft 451 kts 178°
2026-04-26 14:23 46.61382 8.59310 34140 ft 451 kts 178°
2026-04-26 14:24 46.55131 8.60204 34140 ft 451 kts 178°
2026-04-26 14:24 46.48891 8.61090 34141 ft 451 kts 178°
2026-04-26 14:25 46.42651 8.61964 34125 ft 451 kts 178°
2026-04-26 14:25 46.36408 8.62844 34100 ft 450 kts 178°
2026-04-26 14:26 46.30169 8.63736 34100 ft 451 kts 178°
2026-04-26 14:26 46.23927 8.64613 34087 ft 450 kts 178°
2026-04-26 14:27 46.17692 8.65485 34083 ft 450 kts 178°
2026-04-26 14:27 46.11451 8.66351 34079 ft 450 kts 178°
2026-04-26 14:28 46.05218 8.67181 34084 ft 450 kts 178°
2026-04-26 14:28 45.98984 8.67967 34091 ft 449 kts 178°
2026-04-26 14:29 45.92762 8.68732 34097 ft 448 kts 179°
2026-04-26 14:29 45.86550 8.69493 34095 ft 448 kts 179°
2026-04-26 14:30 45.80343 8.70274 34086 ft 447 kts 179°
2026-04-26 14:30 45.74149 8.71064 34096 ft 447 kts 179°
2026-04-26 14:31 45.67994 8.71847 34118 ft 446 kts 179°
2026-04-26 14:31 45.61806 8.72610 34110 ft 446 kts 179°
2026-04-26 14:32 45.55615 8.73369 34083 ft 446 kts 179°
2026-04-26 14:32 45.49428 8.74130 34083 ft 446 kts 179°
2026-04-26 14:33 45.43237 8.74896 34098 ft 446 kts 178°
2026-04-26 14:33 45.37046 8.75666 34098 ft 447 kts 178°
2026-04-26 14:34 45.30857 8.76411 34099 ft 447 kts 179°
2026-04-26 14:34 45.24656 8.76991 34096 ft 446 kts 180°
2026-04-26 14:35 45.18448 8.77506 34113 ft 447 kts 180°
2026-04-26 14:35 45.12235 8.78043 34124 ft 447 kts 179°
2026-04-26 14:36 45.06032 8.78608 34128 ft 447 kts 179°
2026-04-26 14:36 44.99861 8.79173 34078 ft 448 kts 179°
2026-04-26 14:37 44.93632 8.79741 34085 ft 449 kts 179°
2026-04-26 14:37 44.87393 8.80310 34083 ft 450 kts 179°
2026-04-26 14:38 44.81129 8.80870 34083 ft 452 kts 179°
2026-04-26 14:38 44.74848 8.81430 34093 ft 453 kts 179°
2026-04-26 14:39 44.68544 8.82004 34120 ft 454 kts 179°
2026-04-26 14:39 44.62233 8.82578 34128 ft 455 kts 179°
2026-04-26 14:40 44.55904 8.83146 34144 ft 455 kts 179°
2026-04-26 14:40 44.49578 8.83714 34147 ft 455 kts 179°
2026-04-26 14:41 44.43249 8.84279 34153 ft 456 kts 179°
2026-04-26 14:41 44.36914 8.84834 34156 ft 456 kts 179°
2026-04-26 14:42 44.30632 8.86125 34157 ft 460 kts 166°
2026-04-26 14:42 44.24572 8.88880 34153 ft 461 kts 165°
2026-04-26 14:43 44.18471 8.91644 34160 ft 461 kts 165°
2026-04-26 14:43 44.12369 8.94405 34158 ft 461 kts 165°
2026-04-26 14:44 44.06267 8.97167 34148 ft 461 kts 164°
2026-04-26 14:44 44.00159 8.99923 34147 ft 462 kts 164°
2026-04-26 14:45 43.94210 9.03320 34149 ft 466 kts 151°
2026-04-26 14:45 43.89037 9.08765 34149 ft 468 kts 141°
2026-04-26 14:46 43.84028 9.14569 34144 ft 470 kts 141°
2026-04-26 14:46 43.78994 9.20345 34145 ft 470 kts 141°
2026-04-26 14:47 43.73992 9.26098 34148 ft 471 kts 141°
2026-04-26 14:47 43.68943 9.31900 34150 ft 471 kts 141°
2026-04-26 14:48 43.63894 9.37687 34143 ft 472 kts 141°
2026-04-26 14:48 43.58487 9.42689 34152 ft 467 kts 162°
2026-04-26 14:49 43.52251 9.45072 34153 ft 465 kts 167°
2026-04-26 14:49 43.45979 9.47288 34153 ft 466 kts 167°
2026-04-26 14:50 43.39696 9.49492 34146 ft 466 kts 167°
2026-04-26 14:50 43.33414 9.51715 34156 ft 466 kts 167°
2026-04-26 14:51 43.27170 9.53924 34161 ft 466 kts 167°
2026-04-26 14:51 43.20880 9.56147 34162 ft 466 kts 167°
2026-04-26 14:52 43.14594 9.58365 34160 ft 466 kts 167°
2026-04-26 14:52 43.08307 9.60577 34160 ft 466 kts 167°
2026-04-26 14:53 43.02024 9.62767 34159 ft 466 kts 167°
2026-04-26 14:53 42.95739 9.64967 34166 ft 466 kts 167°
2026-04-26 14:54 42.89458 9.67157 34165 ft 466 kts 167°
2026-04-26 14:54 42.83187 9.69343 34166 ft 465 kts 167°
2026-04-26 14:55 42.76912 9.71531 34156 ft 465 kts 167°
2026-04-26 14:55 42.70633 9.73706 34157 ft 465 kts 167°
2026-04-26 14:56 42.64354 9.75868 34158 ft 465 kts 167°
2026-04-26 14:56 42.58078 9.78036 34156 ft 465 kts 167°
2026-04-26 14:57 42.51795 9.80199 34155 ft 465 kts 167°
2026-04-26 14:57 42.45520 9.82359 34157 ft 465 kts 167°
2026-04-26 14:58 42.39242 9.84523 34173 ft 465 kts 167°
2026-04-26 14:58 42.33017 9.86649 34167 ft 464 kts 167°
2026-04-26 14:59 42.26757 9.88779 34163 ft 464 kts 167°
2026-04-26 14:59 42.20498 9.90909 34158 ft 464 kts 167°
2026-04-26 15:00 42.14235 9.93049 34154 ft 464 kts 167°
2026-04-26 15:00 42.07981 9.95179 34160 ft 464 kts 167°
2026-04-26 15:01 42.01724 9.97304 34167 ft 464 kts 167°
2026-04-26 15:01 41.95468 9.99417 34160 ft 463 kts 168°
2026-04-26 15:02 41.89215 10.01525 34175 ft 463 kts 167°
2026-04-26 15:02 41.82969 10.03623 34165 ft 462 kts 168°
2026-04-26 15:03 41.76655 10.04998 34169 ft 459 kts 179°
2026-04-26 15:03 41.70279 10.05403 34159 ft 458 kts 179°
2026-04-26 15:04 41.63949 10.05833 34160 ft 458 kts 179°
2026-04-26 15:04 41.57578 10.06274 34165 ft 458 kts 179°
2026-04-26 15:05 41.51211 10.06695 34150 ft 458 kts 179°
2026-04-26 15:05 41.44843 10.07109 34162 ft 458 kts 179°
2026-04-26 15:06 41.38477 10.07526 34155 ft 458 kts 179°
2026-04-26 15:06 41.32106 10.07950 34153 ft 458 kts 179°
2026-04-26 15:07 41.22552 10.08589 34149 ft 458 kts 179°
2026-04-26 15:07 41.17253 10.08945 34151 ft 458 kts 179°
2026-04-26 15:08 41.10880 10.09359 34156 ft 459 kts 178°
2026-04-26 15:08 41.03469 10.09838 34146 ft 459 kts 178°
2026-04-26 15:09 40.98125 10.10193 34147 ft 459 kts 178°
2026-04-26 15:09 40.91746 10.10608 34151 ft 459 kts 178°
2026-04-26 15:10 40.86444 10.10952 34142 ft 459 kts 178°
2026-04-26 15:10 40.78978 10.11438 34142 ft 459 kts 178°
2026-04-26 15:11 40.72632 10.11842 34144 ft 460 kts 178°
2026-04-26 15:11 40.66244 10.12271 34146 ft 460 kts 178°
2026-04-26 15:12 40.59854 10.12692 34150 ft 460 kts 178°
2026-04-26 15:12 40.53462 10.13093 34148 ft 460 kts 178°
2026-04-26 15:13 40.47071 10.13501 34149 ft 460 kts 178°
2026-04-26 15:13 40.40681 10.13911 34141 ft 460 kts 178°
2026-04-26 15:14 40.34291 10.14323 34143 ft 460 kts 178°
2026-04-26 15:14 40.27898 10.14736 34146 ft 460 kts 178°
2026-04-26 15:15 40.21502 10.15143 34150 ft 460 kts 178°
2026-04-26 15:15 40.15108 10.15555 34150 ft 460 kts 178°
2026-04-26 15:16 40.08713 10.15968 34151 ft 460 kts 178°
2026-04-26 15:16 40.02365 10.16374 34149 ft 460 kts 178°
2026-04-26 15:17 39.97011 10.16708 34151 ft 460 kts 178°
2026-04-26 15:17 39.89585 10.17171 34153 ft 459 kts 178°
2026-04-26 15:18 39.83194 10.17574 34151 ft 459 kts 178°
2026-04-26 15:18 39.76812 10.17985 34150 ft 459 kts 178°
2026-04-26 15:19 39.70429 10.18390 34150 ft 459 kts 178°
2026-04-26 15:19 39.64045 10.18786 34151 ft 459 kts 178°
2026-04-26 15:20 39.57667 10.19190 34150 ft 459 kts 178°
2026-04-26 15:20 39.51291 10.19599 34151 ft 459 kts 179°
2026-04-26 15:21 39.44912 10.19991 34155 ft 459 kts 179°
2026-04-26 15:21 39.38539 10.20388 34158 ft 459 kts 179°
2026-04-26 15:22 39.32161 10.20779 34145 ft 459 kts 179°
2026-04-26 15:22 39.25772 10.21174 34145 ft 459 kts 179°
2026-04-26 15:23 39.19384 10.21575 34147 ft 459 kts 179°
2026-04-26 15:23 39.13041 10.21966 34148 ft 460 kts 179°
2026-04-26 15:24 39.06651 10.22361 34147 ft 459 kts 180°
2026-04-26 15:24 39.00267 10.22765 34152 ft 459 kts 180°
2026-04-26 15:25 38.94927 10.23104 34159 ft 459 kts 180°
2026-04-26 15:25 38.87519 10.23548 34154 ft 458 kts 180°
2026-04-26 15:26 38.81154 10.23928 34155 ft 458 kts 180°
2026-04-26 15:26 38.74795 10.24315 34157 ft 457 kts 180°
2026-04-26 15:27 38.68438 10.24710 34156 ft 457 kts 180°
2026-04-26 15:27 38.62089 10.25108 34151 ft 457 kts 180°
2026-04-26 15:28 38.55740 10.25497 34147 ft 456 kts 180°
2026-04-26 15:28 38.49400 10.25884 34148 ft 456 kts 180°
2026-04-26 15:29 38.43063 10.26266 34140 ft 456 kts 180°
2026-04-26 15:30 38.30389 10.27031 34139 ft 456 kts 180°
2026-04-26 15:30 38.24051 10.27411 34144 ft 456 kts 180°
2026-04-26 15:31 38.14552 10.27979 34132 ft 455 kts 181°
2026-04-26 15:32 38.06124 10.28503 34142 ft 455 kts 181°
2026-04-26 15:32 37.98735 10.28636 34143 ft 453 kts 186°
2026-04-26 15:33 37.92453 10.28227 34143 ft 452 kts 187°
2026-04-26 15:33 37.86170 10.27774 34137 ft 452 kts 186°
2026-04-26 15:34 37.79922 10.27434 34133 ft 453 kts 186°
2026-04-26 15:34 37.73584 10.27155 34120 ft 453 kts 186°
2026-04-26 15:35 37.67332 10.26887 34123 ft 452 kts 187°
2026-04-26 15:35 37.61044 10.26599 34122 ft 452 kts 187°
2026-04-26 15:36 37.54759 10.26300 34131 ft 452 kts 187°
2026-04-26 15:36 37.48440 10.26964 34110 ft 461 kts 176°
2026-04-26 15:37 37.42122 10.28416 34118 ft 462 kts 176°
2026-04-26 15:37 37.35794 10.29876 34114 ft 463 kts 176°
2026-04-26 15:38 37.29460 10.31318 34120 ft 463 kts 176°
2026-04-26 15:38 37.23120 10.32762 34105 ft 463 kts 177°
2026-04-26 15:39 37.16786 10.34201 34116 ft 462 kts 177°
2026-04-26 15:39 37.11524 10.35394 34119 ft 462 kts 177°
2026-04-26 15:40 37.04132 10.37057 34123 ft 462 kts 177°
2026-04-26 15:40 36.97812 10.38493 34117 ft 461 kts 177°
2026-04-26 15:41 36.91498 10.39918 34122 ft 461 kts 178°
2026-04-26 15:41 36.85190 10.41332 34126 ft 460 kts 178°
2026-04-26 15:42 36.78889 10.42756 34125 ft 460 kts 178°
2026-04-26 15:42 36.72592 10.44163 34123 ft 459 kts 178°
2026-04-26 15:43 36.66302 10.45563 34128 ft 459 kts 178°
2026-04-26 15:44 36.56881 10.47669 34133 ft 458 kts 178°
2026-04-26 15:44 36.47463 10.49773 34116 ft 458 kts 178°
2026-04-26 15:45 36.38106 10.51853 34129 ft 457 kts 178°
2026-04-26 15:46 36.28719 10.53933 34132 ft 457 kts 178°
2026-04-26 15:46 36.24541 10.54858 34125 ft 456 kts 177°
2026-04-26 15:47 36.13104 10.57391 34135 ft 455 kts 178°
2026-04-26 15:48 36.06861 10.58769 34125 ft 456 kts 178°
2026-04-26 15:48 36.00600 10.60147 34108 ft 457 kts 177°
2026-04-26 15:49 35.94336 10.61527 34112 ft 458 kts 177°
2026-04-26 15:49 35.88061 10.62908 34112 ft 458 kts 177°
2026-04-26 15:50 35.81779 10.64289 34117 ft 458 kts 177°
2026-04-26 15:50 35.75502 10.65663 34105 ft 458 kts 177°
2026-04-26 15:51 35.69221 10.67036 34113 ft 458 kts 177°
2026-04-26 15:51 35.62947 10.68403 33940 ft 459 kts 177°
2026-04-26 15:51 35.60861 10.68855 33573 ft 459 kts 177°
2026-04-26 15:52 35.56650 10.69766 32871 ft 460 kts 176°
2026-04-26 15:52 35.54559 10.70220 32524 ft 461 kts 176°
2026-04-26 15:52 35.51396 10.70908 32012 ft 462 kts 176°
2026-04-26 15:52 35.48225 10.71598 31495 ft 464 kts 176°
2026-04-26 15:53 35.45042 10.72289 31023 ft 465 kts 176°
2026-04-26 15:53 35.41847 10.72785 30533 ft 461 kts 183°
2026-04-26 15:53 35.38656 10.72729 30027 ft 458 kts 188°
2026-04-26 15:53 35.35465 10.72541 29388 ft 460 kts 188°
2026-04-26 15:54 35.32259 10.72357 28761 ft 462 kts 188°
2026-04-26 15:54 35.29045 10.72172 28150 ft 463 kts 188°
2026-04-26 15:54 35.25818 10.71986 27526 ft 465 kts 187°
2026-04-26 15:54 35.22584 10.71797 26939 ft 466 kts 187°
2026-04-26 15:55 35.19381 10.71610 26371 ft 468 kts 187°
2026-04-26 15:55 35.16117 10.71421 25804 ft 470 kts 187°
2026-04-26 15:55 35.12853 10.71233 25251 ft 470 kts 187°
2026-04-26 15:55 35.09589 10.71047 24709 ft 468 kts 187°
2026-04-26 15:56 35.06349 10.70863 24181 ft 465 kts 186°
2026-04-26 15:56 35.03123 10.70682 23652 ft 462 kts 186°
2026-04-26 15:56 34.99919 10.70502 23021 ft 460 kts 186°
2026-04-26 15:56 34.96729 10.70322 22414 ft 457 kts 186°
2026-04-26 15:57 34.93571 10.70142 21814 ft 453 kts 186°
2026-04-26 15:57 34.90427 10.69962 21235 ft 450 kts 186°
2026-04-26 15:57 34.87312 10.69783 20662 ft 446 kts 186°
2026-04-26 15:57 34.85266 10.69667 20292 ft 444 kts 186°
2026-04-26 15:58 34.81157 10.69435 19551 ft 440 kts 186°
2026-04-26 15:58 34.78111 10.69260 19010 ft 437 kts 186°
2026-04-26 15:58 34.75076 10.69088 18470 ft 436 kts 186°
2026-04-26 15:58 34.72050 10.68936 17867 ft 435 kts 184°
2026-04-26 15:59 34.69031 10.69129 17265 ft 434 kts 179°
2026-04-26 15:59 34.66031 10.69413 16680 ft 430 kts 179°
2026-04-26 15:59 34.63057 10.69692 16105 ft 427 kts 179°
2026-04-26 15:59 34.60105 10.69966 15540 ft 424 kts 179°
2026-04-26 16:00 34.57174 10.70237 14934 ft 421 kts 180°
2026-04-26 16:00 34.54265 10.70501 14342 ft 418 kts 180°
2026-04-26 16:00 34.51376 10.70763 13725 ft 414 kts 179°
2026-04-26 16:00 34.48516 10.71027 13076 ft 411 kts 179°
2026-04-26 16:01 34.45679 10.71290 12439 ft 406 kts 179°
2026-04-26 16:01 34.42875 10.71550 11813 ft 402 kts 179°
2026-04-26 16:01 34.40105 10.71805 11292 ft 397 kts 178°
2026-04-26 16:01 34.37358 10.72053 11113 ft 395 kts 178°
2026-04-26 16:02 34.34619 10.72300 11129 ft 395 kts 178°
2026-04-26 16:02 34.31873 10.72548 11134 ft 395 kts 178°
2026-04-26 16:02 34.29149 10.72798 11113 ft 385 kts 178°
2026-04-26 16:02 34.27403 10.72967 10956 ft 375 kts 178°
2026-04-26 16:03 34.24015 10.73323 10469 ft 362 kts 177°
2026-04-26 16:03 34.21578 10.73593 10115 ft 341 kts 176°
2026-04-26 16:03 34.19256 10.73851 9731 ft 322 kts 176°
2026-04-26 16:03 34.17114 10.74082 9373 ft 305 kts 177°
2026-04-26 16:04 34.15034 10.74301 9012 ft 295 kts 177°
2026-04-26 16:04 34.13001 10.74512 8658 ft 292 kts 177°
2026-04-26 16:04 34.10959 10.74724 8306 ft 289 kts 176°
2026-04-26 16:04 34.08972 10.74932 7997 ft 284 kts 177°
2026-04-26 16:05 34.07052 10.74702 7694 ft 273 kts 206°
2026-04-26 16:05 34.05640 10.73350 7410 ft 261 kts 240°
2026-04-26 16:05 34.05097 10.71335 7125 ft 251 kts 264°
2026-04-26 16:05 34.04748 10.69283 6839 ft 249 kts 255°
2026-04-26 16:06 34.04131 10.67351 6560 ft 246 kts 246°
2026-04-26 16:06 34.03308 10.65556 6255 ft 243 kts 238°
2026-04-26 16:06 34.02343 10.63886 5915 ft 242 kts 233°
2026-04-26 16:06 34.01264 10.62333 5560 ft 240 kts 229°
2026-04-26 16:07 34.00095 10.60928 5223 ft 235 kts 223°
2026-04-26 16:07 33.98851 10.59674 4871 ft 232 kts 218°
2026-04-26 16:07 33.97531 10.58563 4498 ft 230 kts 213°
2026-04-26 16:07 33.96154 10.57608 4117 ft 228 kts 207°
2026-04-26 16:08 33.94728 10.56810 3751 ft 223 kts 201°
2026-04-26 16:08 33.93776 10.56372 3509 ft 220 kts 198°
2026-04-26 16:08 33.91842 10.55694 3015 ft 213 kts 191°
2026-04-26 16:08 33.90399 10.55381 2646 ft 208 kts 182°
2026-04-26 16:09 33.89051 10.55756 2499 ft 194 kts 146°
2026-04-26 16:09 33.88163 10.56903 2501 ft 187 kts 117°
2026-04-26 16:09 33.87552 10.58284 2497 ft 186 kts 115°
2026-04-26 16:09 33.87172 10.59738 2486 ft 186 kts 95°
2026-04-26 16:10 33.87137 10.61285 2346 ft 183 kts 88°
2026-04-26 16:10 33.87165 10.62790 2134 ft 177 kts 88°
2026-04-26 16:10 33.87201 10.64251 1922 ft 172 kts 88°
2026-04-26 16:10 33.87238 10.65682 1693 ft 171 kts 89°
2026-04-26 16:11 33.87274 10.67067 1460 ft 159 kts 88°
2026-04-26 16:11 33.87306 10.68330 1279 ft 142 kts 88°
2026-04-26 16:11 33.87336 10.69501 1086 ft 137 kts 88°
2026-04-26 16:11 33.87355 10.70633 916 ft 136 kts 88°
2026-04-26 16:12 33.87378 10.71790 710 ft 137 kts 85°
2026-04-26 16:12 33.87431 10.72907 560 ft 132 kts 87°
2026-04-26 16:12 33.87480 10.75136 217 ft 135 kts 86°
2026-04-26 16:13 33.87508 10.76274 48 ft 136 kts 86°
2026-04-26 16:13 33.87536 10.77304 20 ft 104 kts 88°
2026-04-26 16:13 33.87553 10.77979 22 ft 64 kts 88°
2026-04-26 16:13 33.87565 10.78409 18 ft 39 kts 88°
2026-04-26 16:14 33.87528 10.78594 21 ft 19 kts 156°
2026-04-26 16:14 33.87421 10.78578 23 ft 15 kts 217°
2026-04-26 16:14 33.87395 10.78405 27 ft 12 kts 267°
2026-04-26 16:15 33.87392 10.78299 27 ft 12 kts 268°
2026-04-26 16:15 33.87398 10.78200 26 ft 11 kts 274°
2026-04-26 16:15 33.87396 10.78109 26 ft 10 kts 269°
2026-04-26 16:16 33.87391 10.77934 27 ft 14 kts 268°
2026-04-26 16:16 33.87389 10.77820 27 ft 13 kts 268°
2026-04-26 16:16 33.87386 10.77715 26 ft 12 kts 268°
2026-04-26 16:16 33.87384 10.77618 26 ft 10 kts 269°
2026-04-26 16:17 33.87371 10.77580 26 ft 3 kts 201°
2026-04-26 16:17 33.87335 10.77578 27 ft 4 kts 179°
2026-04-26 16:17 33.87325 10.77579 27 ft 0 kts 179°